Location: *
(43.0833°N, 13.0500°E)
Time: 20:33:19
(UTC+00:00)

Cosmos 1624 Rocket - Pass Details

Date: 15 November 2019
Orbit: 756 x 785 km, 74.0° (Epoch: 11 December)

Event Time Altitude Azimuth Distance (km) Brightness Sun altitude
Rises 17:31:24 0° 345° (NNW) 3,283 7.4 -19.5°
Reaches altitude 10° 17:33:55 10° 352° (N) 2,352 6.5 -20.0°
Maximum altitude 17:39:01 44° 64° (ENE) 1,084 4.3 -20.9°
Enters shadow 17:39:10 44° 68° (ENE) 1,086 4.3 -20.9°
